Location: Santaluz Observatory
(32.9930°N, 117.1510°W)
Time: 01:32:08
(UTC-07:00)

Daily predictions for brighter satellites

Satellite Brightness Start Highest point End
(mag) Time Altitude Azimuth Time Altitude Azimuth Time Altitude Azimuth
Terra 4.4 00:08:56 13° WNW 00:08:56 13° WNW 00:09:52 10° WNW
SL-16 R/B 3.2 00:03:33 10° NNW 00:07:17 42° N 00:07:17 42° N
CZ-2C R/B 4.3 00:20:17 41° N 00:20:17 41° N 00:23:54 10° N
SeaSat 1 4.1 00:33:28 30° N 00:33:28 30° N 00:36:01 10° NNW
Lacrosse 5 3.8 00:35:59 25° NNW 00:35:59 25° NNW 00:39:30 10° NNE
USA 267 4.3 00:34:47 10° NNE 00:40:46 40° NW 00:42:34 34° WNW
Cosmos 2360 Rocket 3.4 00:42:45 10° NNW 00:46:21 39° N 00:46:21 39° N
COSMOS 2428 4.3 00:47:35 10° N 00:51:54 29° NE 00:51:54 29° NE
Lacrosse 5 rocket 4.2 00:50:27 10° NNW 00:51:30 16° NNW 00:51:30 16° NNW
NOSS 3-1 (C) 4.4 00:47:20 10° NW 00:53:44 55° WNW 00:53:44 55° WNW
Cosmos 2322 Rocket 4.1 00:55:33 10° NW 00:57:49 22° NW 00:57:49 22° NW
H-2A ROCKET BODY 4.5 01:00:54 57° SSE 01:01:56 58° SSE 02:03:51 10° E
USA 234 4.4 01:08:35 23° E 01:11:59 37° NE 01:17:53 10° NNW
Cosmos 2333 Rocket 3.9 01:20:05 10° N 01:24:45 25° ENE 01:25:15 25° ENE
Cosmos 2297 Rocket 4.0 01:27:30 22° ENE 01:27:30 22° ENE 01:30:18 10° NE
ATLAS 2AS CENTAUR R/B 3.8 01:20:53 10° NNW 01:28:25 44° NE 01:31:13 32° E
Cosmos 2219 Rocket 3.5 01:26:14 10° N 01:31:03 35° NE 01:31:03 35° NE
NOSS 3-3 (A) 4.5 01:33:07 54° NE 01:33:07 54° NE 01:38:04 10° NNE
Cosmos 2016 Rocket 4.5 01:34:29 10° N 01:39:27 56° NNW 01:39:27 56° NNW
Cosmos 2237 Rocket 3.7 01:46:26 10° N 01:51:16 29° ENE 01:52:19 27° E
CZ-3B DEB 4.4 01:54:53 48° SSE 01:58:14 57° ESE 02:12:23 10° NE
ATLAS 3B CENTAUR R/B 4.1 01:35:46 10° WSW 02:01:44 72° S 02:10:26 10° E
Cosmos 2227 Rocket 2.8 02:04:40 54° NE 02:04:40 54° NE 02:09:03 10° NNE
Resurs 1-4 Rocket 4.2 02:01:05 10° NE 02:04:33 18° E 02:04:44 17° E
Cosmos 2233 Rocket 4.0 02:15:18 10° N 02:21:09 77° NNW 02:21:09 77° NNW
CZ-2D R/B 3.5 02:22:00 10° NE 02:26:28 28° E 02:26:43 28° ESE
Cosmos 1455 4.4 02:28:45 10° NNE 02:31:12 23° ENE 02:31:12 23° ENE
Cosmos 2082 3.9 02:35:30 60° NNW 02:35:30 60° NNW 02:40:26 10° NNE
SL-08 R/B 3.9 02:36:01 58° NE 02:36:01 58° NE 02:40:33 10° N
COSMOS 2428 4.5 02:31:44 10° NW 02:33:53 20° WNW 02:33:53 20° WNW
NOSS 0 Rocket 3.9 02:30:36 10° NNW 02:36:23 76° WNW 02:36:23 76° WNW
Lacrosse 4 Rocket 3.2 02:39:11 27° ENE 02:39:11 27° ENE 02:41:39 10° NE
IRS-1C 4.2 02:36:10 10° NNE 02:41:16 69° E 02:41:16 69° E
Cosmos 1626 4.2 02:44:25 26° N 02:44:25 26° N 02:46:08 10° N
Cosmos 1805 Rocket 4.5 02:44:58 46° ENE 02:44:58 46° ENE 02:48:33 10° NNE
AQUA 4.2 02:40:51 10° NNE 02:44:46 61° NNE 02:44:46 61° NNE
Spot 4 Rocket 4.4 02:42:56 10° NNE 02:47:57 53° E 02:48:05 53° ESE
Meteor 2-12 Rocket 4.4 02:43:39 10° NNW 02:49:32 66° W 02:49:32 66° W
USA 234 3.5 02:55:51 50° W 02:55:51 50° W 03:01:09 10° NW
Cosmos 1464 Rocket 3.9 02:49:28 10° N 02:55:38 77° E 02:56:56 57° SSE
DELTA 2 R/B (1) 4.0 02:55:50 48° NW 02:56:52 55° NNW 03:02:20 10° ENE
Meteor 1-27 4.2 02:52:01 10° NNW 02:57:46 71° W 02:57:46 71° W
IRS-1D 3.6 02:58:00 10° NNE 03:03:19 69° ESE 03:03:55 63° SE
ADEOS Rocket 3.5 02:57:10 10° NNE 03:04:49 88° ESE 03:07:32 46° SSW
BREEZE-M R/B 4.3 03:06:58 49° SSW 03:08:49 63° SE 03:13:33 10° ENE
Cosmos 2333 Rocket 3.3 03:03:52 10° NW 03:07:13 29° WNW 03:07:13 29° WNW
Cosmos 2297 Rocket 3.0 03:09:18 35° WNW 03:09:32 35° WNW 03:14:41 10° N
Sich 1 3.2 03:11:32 69° E 03:11:32 69° E 03:15:49 10° NNE
Cosmos 1633 Rocket 3.4 03:11:33 55° ESE 03:11:46 56° E 03:16:02 10° NNE
Cosmos 2219 Rocket 3.9 03:10:33 10° NW 03:12:43 19° WNW 03:12:43 19° WNW
Cosmos 1980 4.4 03:11:27 10° NW 03:15:42 38° WNW 03:15:42 38° WNW
ATLAS 2AS CENTAUR R/B 3.5 03:12:16 10° NW 03:18:33 36° W 03:18:33 36° W
UNKNOWN OBJECT B 3.3 03:23:55 10° NNE 03:27:48 52° E 03:28:17 48° SE
SL-16 R/B 2.4 03:28:29 37° S 03:31:03 74° WSW 03:37:14 10° NNW
MOS 1 Rocket 4.2 03:26:42 10° NNE 03:31:51 54° E 03:34:34 27° SSE
ATLAS 5 CENTAUR R/B 3.2 03:31:07 23° SE 03:32:42 28° ESE 03:36:47 10° NE
Cosmos 2237 Rocket 3.2 03:30:21 10° NW 03:34:04 29° W 03:34:04 29° W
SL-16 R/B 2.1 03:31:33 10° NNW 03:37:15 81° WSW 03:41:04 22° SSE
ADEOS 3.7 03:34:22 10° N 03:39:29 57° WNW 03:40:42 46° WSW
Cosmos 2227 4.2 03:38:28 41° SSW 03:40:36 86° ESE 03:46:23 10° NNE
Resurs 1-4 Rocket 2.5 03:39:29 10° N 03:44:33 46° WNW 03:45:49 39° WSW
Cosmos 1570 Rocket 4.4 03:39:48 10° NNW 03:44:47 41° W 03:45:04 40° WSW
ARIANE 5 R/B 2.9 03:43:13 10° N 03:48:01 44° WNW 03:49:09 38° WSW
Cosmos 2227 Rocket 4.2 03:46:29 12° WNW 03:48:02 13° NW 03:50:32 10° NNW
ADEOS II 3.8 03:46:19 10° NE 03:50:47 28° E 03:55:13 10° SSE
UNK 4.1 03:51:16 40° WSW 03:51:26 41° W 03:55:47 10° NNW
Cosmos 2034 Rocket 4.4 03:48:27 10° NNW 03:54:29 46° W 03:57:03 31° SW
Cosmos 1707 Rocket 4.0 03:51:26 10° NNW 03:55:32 40° W 03:55:50 39° WSW
Cosmos 375 4.4 03:51:54 10° NW 03:56:43 76° WSW 04:00:40 10° SSE
OAO 3 Copernicus 4.5 03:58:06 33° WSW 03:59:56 49° SSW 04:04:48 10° SE
USA 161 2.8 04:00:37 27° NE 04:00:37 27° NE 04:01:59 10° N
MOZ.5/SAFIR/RUBIN 5/SL-8 3.7 03:57:07 17° SSE 04:00:51 87° WSW 04:05:39 10° NNW
Cosmos 1892 4.2 03:59:58 12° SSE 04:03:08 34° E 04:06:36 10° NNE
Cosmos 2242 Rocket 3.5 03:59:07 10° N 04:03:37 78° W 04:06:34 22° S
Cosmos 1867 4.1 04:01:22 21° S 04:04:50 53° ESE 04:10:08 10° NE
OAO 3 Rocket 3.2 04:02:58 35° SW 04:04:58 69° SSE 04:09:54 10° ENE
Cosmos 1933 3.7 04:01:42 10° N 04:05:46 66° E 04:09:49 10° SSE
CZ-2D R/B 3.2 04:02:01 10° NNW 04:06:25 28° WNW 04:08:03 24° W
Cosmos 2263 Rocket 3.1 04:02:03 13° S 04:06:41 44° ESE 04:11:56 10° NE
Cosmos 1455 4.4 04:05:06 10° NW 04:06:10 14° WNW 04:06:10 14° WNW
GPS 2-04 Rocket1 3.2 04:10:36 36° SW 04:11:19 40° SSW 04:15:16 10° SE
Cosmos 1486 Rocket 4.2 04:11:43 28° SW 04:14:14 53° WNW 04:19:22 10° N
Cosmos 1862 Rocket 3.5 04:10:19 10° N 04:14:39 86° E 04:18:57 10° S
Cosmos 1933 Rocket 3.7 04:13:14 28° SSW 04:15:24 58° W 04:19:49 10° N
Cosmos 1400 Rocket 2.6 04:14:14 25° S 04:16:24 85° W 04:20:22 10° N
Lacrosse 4 Rocket 3.3 04:15:32 15° WNW 04:16:41 16° NW 04:19:21 10° NNW
Meteor 2-10 Rocket 3.6 04:12:22 10° N 04:17:22 75° E 04:22:28 10° SSE
Meteosat 1 Rocket2 3.4 04:17:31 28° SW 04:19:09 40° S 04:22:41 10° ESE
In-Cosmos 22 Rocket 4.0 04:15:16 19° SSW 04:19:10 76° W 04:24:29 10° N
Cosmos 841 Rocket 3.8 04:17:57 10° NNW 04:23:14 71° ENE 04:28:28 10° SSE
Cosmos 371 Rocket 3.2 04:27:31 10° NNW 04:32:16 65° WSW 04:37:00 10° S
Meteor 1-26 Rocket 4.2 04:33:18 10° N 04:39:01 90° NE 04:44:37 10° S
Cosmos 1703 Rocket 4.2 04:36:22 10° N 04:40:42 59° E 04:45:04 10° SSE
RESURS DK-1 4.4 04:41:46 10° N 04:45:31 32° ENE 04:49:15 10° SE
ATLAS 3B CENTAUR R/B 3.1 04:35:50 10° W 04:46:35 41° SSW 04:50:57 10° SE
USA 102 4.4 04:45:10 10° N 04:46:37 14° NW 04:47:00 13° NW
Okean O Rocket 1.5 04:44:29 10° N 04:48:50 78° WNW 04:53:09 10° SSW
GP-B 3.3 04:47:21 10° N 04:51:40 52° W 04:55:58 10° SSW
Cosmos 1763 Rocket 3.8 04:47:28 10° NNW 04:52:24 43° WSW 04:57:13 10° S
Cosmos 2285 Rocket 4.0 04:46:23 10° NNW 04:52:39 74° WSW 04:58:56 10° S
Cosmos 1503 Rocket 4.4 04:48:49 12° SW 04:53:29 46° WNW 04:58:33 10° N
CZ-4B R/B 3.1 04:49:53 10° N 04:54:09 61° WNW 04:58:13 10° SSW
Cosmos 1818 3.9 04:49:30 10° NNW 04:54:56 71° ENE 05:00:19 10° SE
PSLV R/B 4.4 04:55:04 10° N 04:58:46 39° WNW 05:02:23 10° SW
Cosmos 1603 4.0 04:54:46 10° NW 05:00:08 44° WSW 05:05:27 10° S
Abrixas rocket 2.2 04:57:18 13° SW 05:00:12 75° NW 05:03:31 10° NE
Cosmos 2279 Rocket 4.0 04:54:09 10° NNW 05:00:16 63° W 05:06:24 10° S
Cosmos 1869 Rocket 3.6 04:57:33 10° SSW 05:02:00 67° W 05:06:27 10° N
Cosmos 304 Rocket 4.0 05:00:21 10° NNW 05:05:11 78° ENE 05:09:57 10° SSE
Cosmos 1315 Rocket 3.7 05:08:30 10° SW 05:12:09 32° WNW 05:15:46 10° NNW
USA 215 3.7 05:07:28 10° NE 05:13:57 62° SE 05:20:23 10° SSW
SEDSat Delta rocket 4.3 05:11:02 10° WSW 05:17:22 58° SSE 05:24:03 10° E
